Location: Baili�vre
(50.0696°N, 4.2409°E)
Time: 10:36:06
(UTC+00:00)

Cosmos 1818 - Pass Details

Date: 08 August 2020
Orbit: 776 x 797 km, 65.0° (Epoch: 20 September)

Event Time Altitude Azimuth Distance (km) Brightness Sun altitude
Rises 19:59:00 0° 319° (NW) 3,309 8.7 -7.1°
Reaches altitude 10° 20:01:26 10° 319° (NW) 2,377 7.6 -7.4°
Maximum altitude 20:06:56 87° 232° (SW) 805 3.6 -8.1°
Drops below altitude 10° 20:12:23 10° 143° (SE) 2,362 5.4 -8.8°
Enters shadow 20:12:25 10° 143° (SE) 2,373 5.4 -8.8°
